Regional Weather Roundup
Issued by NWS

Home | Current Version | Previous Version | Graphics & Text | Print | Product List | Glossary On
Versions: 1 2 3 4 5 6 7 8 9 10 11 12 13 14 15 16 17 18 19 20 21 22 23 24 25 26 27 28 29 30 31 32 33 34 35 36 37 38 39 40 41 42 43 44 45 46 47 48 49 50
000
ASUS45 KBOU 052007
RWRCO

WEATHER ROUNDUP FOR COLORADO
NATIONAL WEATHER SERVICE DENVER/BOULDER CO
100 PM MST THU MAR 05 2015

NOTE: "FAIR" INDICATES FEW OR NO CLOUDS BELOW 12000 FEET WITH NO
SIGNIFICANT WEATHER AND/OR OBSTRUCTIONS TO VISIBILITY.

COZ001>005-013-030-031-052100-
...NORTHWEST COLORADO...

CITY           SKY/WX    TMP DP  RH WIND       PRES   REMARKS
CRAIG          MOSUNNY   31  12  45 E8        30.37  WCI  23
HAYDEN         MOSUNNY   30   9  40 SE5       30.35F WCI  25
MEEKER         SUNNY     37  16  42 SW5       30.34
MOUNT WERNER   NOT AVBL
STEAMBOAT SPGS MOSUNNY   28  10  48 SW3       30.35F
WALDEN         PTSUNNY   30  10  43 S13       30.25F WCI  20
$$

COZ006>008-011-052100-
...WEST CENTRAL VALLEYS...

CITY           SKY/WX    TMP DP  RH WIND       PRES   REMARKS
GRAND JUNCTION SUNNY     40  10  29 CALM      30.40
MONTROSE       SUNNY     38  16  40 VRB3      30.40F
EAGLE          MOSUNNY   32  12  43 CALM      30.36F
RIFLE          SUNNY     37  13  37 W9        30.38F
DELTA          SUNNY     42  12  28 CALM      30.40F
NUCLA          SUNNY     41  12  30 NW7       30.41F
$$

COZ017>023-064>068-052100-
...SOUTHWEST COLORADO...

CITY           SKY/WX    TMP DP  RH WIND       PRES   REMARKS
DURANGO        SUNNY     35   9  33 VRB3      30.35
CORTEZ         SUNNY     43  17  35 NW8       30.37
PAGOSA SPRINGS SUNNY     37  -4  18 S3        30.33F
TELLURIDE      SUNNY     33  -9  15 W10       30.35F WCI  25
WOLF CREEK PAS SUNNY     19  14  79 SW6       30.32F WCI  11
$$

COZ009-010-012-014-032>034-037-058>063-052100-
...CENTRAL COLORADO...

CITY           SKY/WX    TMP DP  RH WIND       PRES   REMARKS
ASPEN          SUNNY     32   6  33 N6        30.31  WCI  26
BUENA VISTA    SUNNY     36   0  21 CALM      30.22F
COPPER MTN     SUNNY     19   0  42 W21G33    30.24S HAZE    WCI   3
BERTHOUD PASS  NOT AVBL
COTTONWOOD PAS SUNNY     34  -9  15 W18G33    30.21F WCI  23
GUNNISON       SUNNY     16   0  48 SE3       30.41F
KREMMLING      MOSUNNY   23   7  50 S3        30.36F
LEADVILLE      SUNNY     25   2  37 NW18G29   30.25S WCI  11
SALIDA         SUNNY     41   5  22 SW16G26   30.30F
SUNLIGHT       NOT AVBL
WILKERSON PASS PTSUNNY   23  -4  30 NW7       30.23R WCI  15
$$

COZ069>075-052100-
...SAN LUIS VALLEY/SANGRE DE CRISTO MOUNTAINS...

CITY           SKY/WX    TMP DP  RH WIND       PRES   REMARKS
ALAMOSA        SUNNY     32   3  29 SW5       30.31  WCI  27
LA VETA PASS   SUNNY     30   1  29 S17G32    30.20F WCI  18
SAGUACHE       SUNNY     30  10  43 SE10      30.31F WCI  21
$$

COZ035-036-038>040-052100-
...NORTHERN COLORADO FRONT RANGE...

CITY           SKY/WX    TMP DP  RH WIND       PRES   REMARKS
DENVER INTL AP PTSUNNY   36  17  46 NE5       30.19
DMNS CITY PARK   N/A     33  17  51 N7        30.19S WCI  27
AURORA         PTSUNNY   39  13  34 SE5       30.18F
FRONT RANGE AP PTSUNNY   37  25  60 E5        30.19F
ERIE MUNI ARPT PTSUNNY   25  12  58 N3        30.21F
BOULDER MUN AP PTSUNNY   28   9  43 CALM      30.20F
CENTENNIAL     PTSUNNY   42   5  21 VRB3      30.17
BROOMFIELD     PTSUNNY   27  12  54 MISG      30.19
FORT COLLINS   PTSUNNY   28  16  59 N5        30.23F WCI  23
LONGMONT       PTSUNNY   37  11  34 CALM      30.24F
$$

COZ041-046-047-076>085-087-088-052100-
...PIKES PEAK/PALMER DIVIDE AND SOUTHERN FOOTHILLS...

CITY           SKY/WX    TMP DP  RH WIND       PRES   REMARKS
COLO. SPRINGS  PTSUNNY   33  19  56 S3        30.20F
A. F. ACADEMY  PTSUNNY   35   3  26 S9        30.17F WCI  28
ELLICOTT       NOT AVBL
FALCON         PTSUNNY   37   8  29 CALM      30.20F
FORT CARSON    PTSUNNY   29  15  54 SE6       30.20F WCI  23
LIMON          MOSUNNY   28  15  58 SE7       30.22F WCI  21
MONUMENT HILL  MOSUNNY   37  10  32 S3        30.17F
TRINIDAD       SUNNY     38  21  50 SE5       30.21F
$$

COZ042>045-048>051-090-091-052100-
...NORTHEAST COLORADO...

CITY           SKY/WX    TMP DP  RH WIND       PRES   REMARKS
GREELEY ARPT   PTSUNNY   32  16  51 W3        30.22F
AKRON          MOSUNNY   43   6  21 VRB7      30.21
BURLINGTON     SUNNY     41  15  35 SW12      30.25F
WRAY           MOSUNNY   49   4  16 W15G21    30.23F
STERLING       MOSUNNY   45  10  24 SW12G18   30.21F
HOLYOKE        NOT AVBL
FORT MORGAN    MOSUNNY   42   2  19 S5        30.22F
$$

COZ086-089-092>099-052100-
...SOUTHEAST COLORADO...

CITY           SKY/WX    TMP DP  RH WIND       PRES   REMARKS
PUEBLO         MOSUNNY   35  20  54 E6        30.23F WCI  30
LA JUNTA         N/A     40  19  43 SE7       30.25
LAMAR          SUNNY     45   4  18 S9        30.26F
SPRINGFIELD      N/A     42   9  25 S10       30.27F
$$



USA.gov is the U.S. government's official web portal to all federal, state and local government web resources and services.